Regional Weather Roundup
Issued by NWS Portland, ME

Current Version | Previous Version | Text Only | Print | Product List | Glossary Off
Versions: 1 2 3 4 5 6 7 8 9 10 11 12 13 14 15 16 17 18 19 20 21 22 23 24 25 26 27 28 29 30 31 32 33 34 35 36 37 38 39 40 41 42 43 44 45 46 47 48 49 50

000
ASUS41 KGYX 261510
RWRGYX
WEATHER ROUNDUP FOR MAINE AND NEW HAMPSHIRE
NATIONAL WEATHER SERVICE GRAY ME
1100 AM EDT SUN MAR 26 2017

MEZ002-005-006-010-012-015-018-020-021-024-026-027-029-261600-
MAINE

CITY           SKY/WX    TMP DP  RH WIND       PRES   REMARKS
PORTLAND       MOSUNNY   32   7  35 NE6       30.60R
SANFORD        SUNNY     33  10  38 E6        30.58S
BAR HARBOR     SUNNY     29   5  36 NE9       30.59S
WISCASSET      SUNNY     33   2  26 CALM      30.60S
ROCKLAND       SUNNY     29  10  45 NE9       30.59S
FRYEBURG       SUNNY     32   3  29 E3        30.56S
LEWISTONAUBURN SUNNY     30   5  34 CALM      30.58S
AUGUSTA        SUNNY     29   0  28 N5        30.57F
WATERVILLE     SUNNY     29   3  33 VRB6      30.55S
BANGOR         MOSUNNY   28   3  34 N8        30.59F
GREENVILLE       N/A     24  -3  30 NW6       30.47F
MILLINOCKET    SUNNY     24  -4  29 SW5       30.59F
HOULTON        SUNNY     21  -1  38 CALM      30.56F
PRESQUE ISLE   SUNNY     19   0  43 NE7       30.57
FRENCHVILLE    SUNNY     18  -5  36 NW16      30.51F WCI   3
CARIBOU        SUNNY     21   0  39 VRB3      30.54F
$$

NHZ002-005-008-009-011-012-014-261600-
NEW HAMPSHIRE

CITY           SKY/WX    TMP DP  RH WIND       PRES   REMARKS
PORTSMOUTH     PTSUNNY   36  20  51 E8        30.56R
ROCHESTER      SUNNY     35  12  38 SE7       30.55R
NASHUA         CLOUDY    37  21  52 E8        30.56S
MANCHESTER     CLOUDY    35  18  49 E9        30.55R
CONCORD        CLOUDY    36  15  42 E7        30.55S
LACONIA        SUNNY     32  11  41 NE9       30.54F
PLYMOUTH       FAIR      34  11  37 E6        30.53F
BERLIN         SUNNY     29   3  33 CALM      30.49F
WHITEFIELD     SUNNY     31  11  43 CALM      30.49F
JAFFREY        CLOUDY    34  17  50 VRB3      30.49F
KEENE          LGT RAIN  35  18  49 S7        30.52F
LEBANON        PTSUNNY   32  20  61 CALM      30.52S
MT WASHINGTON  MOSUNNY   25  -4  28 W20         N/A  WCI  11
$$

VTZ005-007-008-261600-
VERMONT

CITY           SKY/WX    TMP DP  RH WIND       PRES   REMARKS
ST JOHNSBURY     N/A     29  10  45 MISG      30.50F
MONTPELIER     SUNNY     27  19  72 CALM      30.51F
BURLINGTON     MOSUNNY   35  16  45 CALM      30.48F
$$

MAZ007-012-024-CTZ003-RIZ002-NYZ038-NYZ072-261600-
SOUTHERN NEW ENGLAND AND NY

CITY           SKY/WX    TMP DP  RH WIND       PRES   REMARKS
BOSTON         PTSUNNY   40  28  62 E14       30.57R
WORCESTER      CLOUDY    34  20  56 E12G20    30.48S
NANTUCKET      MOSUNNY   44  31  60 E18G26    30.50R
PROVIDENCE     CLOUDY    42  28  57 E9        30.52S
HARTFORD       CLOUDY    35  26  69 N7        30.52S
ALBANY         CLOUDY    33  20  58 CALM      30.49S
NEW YORK CITY  CLOUDY    41  32  70 NE14      30.47R
$$

ANZ081-ANZ082-ANZ150-NHZ014-MEZ023>029-261600-
COASTAL MARINE OBSERVATIONS

STATION/POSITION TIME  TEMP    WIND        PRES    WAVE
                       AIR SEA DIR/SP/G            HT/PER
                 (UTC) (F)     (DEG/KT/KT) (MB)    (FT/S)
MOUNT DESERT ROC 1500   27                 1035.7F
MATINICUS ROCK   1400   27      40/ 13/ 15 1035.4R
ISLE OF SHOALS   1400   35      60/ 17/ 19 1034.5R
JEFFREYS LEDGE   1406      41                N/A     4/ 5
CASHES LEDGE BUO 1350   35 39              1034.8    4/ 6
GEORGES BANK BUO 1350   37 40              1032.5    5/ 8
$$

.............KEY..............
   WCI - WIND CHILL
   TC  - TEMPERATURE IN CELSIUS
   VSB - VISIBILITY IN MILES
   HX  - HEAT INDEX
   FAIR- INDICATES FEW OR NO CLOUDS BELOW 12,000 FT, WITH NO
         SIGNIFICANT WEATHER AND/OR OBSTRUCTIONS TO VISIBILITY.





USA.gov is the U.S. government's official web portal to all federal, state and local government web resources and services.